User: anonymous   Login
Location: SAPM � Hemmingford
(45.0500°N, 73.5833°W)
Time: 09:00:49
(UTC-04:00)
Language:

Cosmos 1603 - Orbit

View from above orbital plane
View from above orbital plane
View from above satellite
View from above satellite

Ground track
Ground track

The orbit data is extracted from the following two-line orbital elements,

1 15333U 84106A   17145.57083071 -.00000070 +00000-0 -11831-4 0  9990
2 15333 071.0256 139.7326 0021786 244.8505 115.0358 14.14060366684823
Epoch (UTC): 25 May 2017 13:41:59
Eccentricity: 0.0021786
inclination: 71.0256°
perigee height: 830 km
apogee height: 861 km
right ascension of ascending node: 139.7326°
argument of perigee: 244.8505°
revolutions per day: 14.14060366
mean anomaly at epoch: 115.0358°
orbit number at epoch: 68482

The dashed part of the orbit path shows where the satellite is in the earth's shadow,  

DLR